Погода в Жалтыре

Погода в Жалтыре : погода сейчас, прогноз погоды и архив. Всё, что Вы хотите узнать о погоде в Жалтыре!

Поиск расширенной информации на нашем сайте:

Другие новости

Новости СМИ2

Главная страница сайта

Новости сайта

03.07.2017

Напоминаем, что на нашем специализированном сайте Метеоцентр.Азия вы можете получить высокодетализированные автоматические прогнозы погоды по пунктам России, СНГ и мира в авиационном формате (включающие направление и скорость ветра, видимость, явления погоды, количество и форму облачности, нижнюю и верхнюю границу облачности).

Рекомендуем: традиционные стили ушу

Погода в Жалтыре - сегодня

Время (UTC), дата Ветер
(°,м/с) 
Видим.   Явления Облачность Т
(°С)
Тd
(°С)
f(%) Тe
(°С)
Pmin
(гПа)
dP
(гПа)
Po
(мм)
O2
(г/м3)
Тmin Tmax R s Состояние
почвы
15 15.04.18 270 (З) н/о    ясно 
+4.5 -0.8 68 +5  1013.8  -0.8  732  290    +9.5       
18 15.04.18 210 (ЮЗ) н/о    ясно 
+0.3 -3.6 75 +1  1013.7  -0.6  732  295    +9.5       
21 15.04.18 220 (ЮЗ) н/о    ясно 
-0.5 -3.8 78 -1  1012.4  -1.4  731  295           
00 16.04.18 220 (ЮЗ) н/о    ясно 
-0.7 -3.5 81 -3  1011.2  -1.2  730  295           
06 16.04.18 270 (З) 4000 м    4/0 средняя, верхняя 
[Ac trans|Ci fib]
+6.7 +0.4 64 +5  1010  0.6  730  287  -0.9         
09 16.04.18 250 (З) 4000 м    8/8 1000 м 
[Cu hum]
+10 +0.9 53 +8  1010.1  0.5  730  284           
12 16.04.18 270 (З) 4000 м    8/8 1000 м 
[Cu med, cong]
+9.3 -0.4 51 +8  1010.9  0.7  731  285           
15 16.04.18 240 (ЮЗ) н/о    10/9 600 м 
[Sc]
+7.1 +0.9 65 +6  1011.7  0.5  731  287    +11       
18 16.04.18 тихо ()   н/о    9/9 600 м 
[Sc]
+4.7 +0.3 73 +5  1012.8  0.7  732  290    +11       
00 17.04.18 060 (СВ) н/о    10/10 600 м кучево-дожд. 
[Cb cap]
+1.2 -1.6 82 1016.1  1.3  734  295           
06 17.04.18 100 (В) 4000 м    8/8 1000 м 
[Cu hum]
+5.9 -0.9 62 +5  1016.8  0.6  735  290  +1         
09 17.04.18 010 (С) 4000 м    3/0 верхняя 
[Ci ing]
+8.6 -1.5 49 +8  1015.9  -0.5  734  287           
12 17.04.18 360 (С) 4000 м    5/0 верхняя 
[Cs]
+8 -4.6 41 +7  1016.6  0.6  735  288           
15 17.04.18 020 (С) н/о    ясно 
+3.9 -4.7 53 +2  1018  0.8  735  293    +10       
18 17.04.18 040 (СВ) н/о    ясно 
+0.6 -5.8 62 1019.9  1.4  737  297    +10       
21 17.04.18 090 (В) н/о    ясно 
-0.3 -6.4 63 -2  1019.5  -0.5  736  298           
00 18.04.18 020 (С) н/о    ясно 
-1.9 -6.1 73 -1  1020.2  0.4  736  299           
06 18.04.18 060 (СВ) 4000 м    8/0 верхняя 
[Cs]
+4.7 -3.6 55 +4  1020.3  -0.2  737  292  -3         
09 18.04.18 050 (СВ) н/о    8/3 600 м верхняя 
[Cu hum|Cs]
+7.7 -6.5 36 +7  1018  -1.8  736  289           
12 18.04.18 060 (СВ) 4000 м    10/10 600 м кучево-дожд. 
[Cb cap]
+7.3 -5.8 39 +6  1015.7  -2.3  734  289           
21 18.04.18 040 (СВ) н/о  {ливн. осадки}  10/10 300 м кучево-дожд. 
[Cb calv]
-1.5 -3.2 88 -5  1017.5  0.7  735  298           
06 19.04.18 тихо ()   4000 м    ясно 
-1 -4.9 75 -1  1023.2  1.4  739  299  -6       
09 19.04.18 тихо ()   4000 м    1/1 600 м 
[Cu hum]
+1.4 -4.7 64 +1  1022.5  -0.3  738  297           
12 19.04.18 тихо ()   4000 м    4/1 600 м верхняя 
[Cu med, cong|Ci fib]
+4.7 -4 53 +5  1021.2  -0.8  738  293           
15 19.04.18 160 (Ю) н/о    ясно 
+2.2 -3.7 65 +2  1020.6  -0.9  737  295    +5.5       
Время (UTC), дата Ветер
(°,м/с) 
Видим.   Явления Облачность Т
(°С)
Тd
(°С)
f(%) Тe
(°С)
Pmin
(гПа)
dP
(гПа)
Po
(мм)
O2
(г/м3)
Тmin Tmax R s Состояние
почвы

Для получения пояснительной информации подведите курсор к названию столбца.

ПОГОДА в Жалтыре - архив

Всё, что Вы хотите узнать о погоде в Жалтыре - удобно и подробно!

Выберите нужную дату (начиная с 1 января 2015* года) и нажмите кнопку "Найти".
Будут отображены архивные сводки погоды по пункту Жалтыр, начиная с указанной даты.


Отображать данные в формате CSV (для использования в таблицах Excel)


Внимание! Наш архив погоды предназначен исключительно для личного некоммерческого использования в познавательных целях. Если Вам необходимы официальные справки о состоянии погоды (для производственных, юридических, коммерческих и т.п. целей), обращайтесь в органы Росгидромета.

*Примечание: данная дата относится к архиву по метеостанциям СССР (Россия, СНГ, Балтия).
Архив по метеостанциям Зарубежной Европы и Азии (кроме Китая) хранится 10 дней, по другим регионам земного шара (Китай, Африка, Америка, Австралия, Океания) - 1 день.

Жалтыр - район местоположения метеостанции


Название, широта, долгота, высота метеостанции:
Жалтыр 51.6°ш. 69.8°д. 620 м над ур. моря [Казахстан]

Дополнительная информация

В oтличие oт бoльшинства пoгoдных сайтoв мы публикуем пoдрoбную метеoинфoрмацию в детальнoм прoфессиoнальнoм фoрмате.

Характеристики температуры и влажнoсти вoздуха измеряются на высoте 2 м в тени вдали oт зданий и деревьев.
Скoрoсть ветра измеряется на высoте 10 м (на урoвне рoста челoвека скoрoсть ветра ниже в 1.5-2 раза). Если метеoстанция нахoдится в гoрoде или в лесу, тo скoрoсть ветра занижена на 2-4 м/с пo сравнению с oткрытым местoм. Скoрoсть ветра над акватoриями крупных рек и oзёр, а также на вершинах хoлмoв на 2-5 м/с выше, чем в oбычных услoвиях.
Атмoсфернoе давление в разных тoчках местнoсти мoжет значительнo oтличаться oт давления на метеoстанции, в зависимoсти oт услoвий рельефа (при пoдъёме на 10 м давление пoнижается примернo на 1 мм рт.ст.).